{"data":{"norad_id":55450,"intl_designator":"2023-015B","name":"STARLINK-5686","alt_names":[],"object_type":"PAYLOAD","status":"ACTIVE","operator":null,"country":"US","launch_date":"2023-02-02","launch_site_code":"AFETR","launch_vehicle":null,"mission":null,"orbit_class":"UNKNOWN","rcs_meters":null,"size_class":null,"mass_kg":null,"dimensions":null,"purposes":["comms"],"wikipedia_slug":null,"has_3d_model":false,"image_url":null,"decayed_at":null,"tle_current":{"epoch":"2026-05-25T00:37:15.422016Z","epoch_age_seconds":66764,"freshness":"FRESH","line1":"1 55450U 23015B   26145.02587294  .00000470  00000+0  26607-4 0  9990","line2":"2 55450  43.0014 257.8846 0001477 273.2499  86.8184 15.27575794183333","mean_motion":15.27575794,"eccentricity":0.0001477,"inclination_deg":43.0014,"raan_deg":257.8846,"arg_perigee_deg":273.2499,"mean_anomaly_deg":86.8184,"bstar":2.6607e-5,"rev_number":18333,"period_min":94.26700826604,"perigee_km":482.04829129909,"apogee_km":484.07508939222,"semimajor_km":6861.1986903457,"source":"CELESTRAK","updated_at":"2026-05-25T13:38:17.802129Z"}}}